N12KBM KLAX-KHHR

Flight info

Callsign N12KBM
Flight time 0h -7m
Altitude VFR/035
Route
Aircraft VL3/L-VGD/C

Departure

Time 2026-04-21 01:05
Airport Los Angeles International Airport (KLAX)

Arrival

Time 2026-04-21 00:57
Airport Jack Northrop Field Hawthorne Municipal Airport (KHHR)
Time Latitude Longitude Altitude Speed Heading
2026-04-21 00:57 33.93382 -118.39913 120 ft 0 kts 22°
2026-04-21 01:00 33.93416 -118.39888 120 ft 22 kts 83°
2026-04-21 01:00 33.93422 -118.39815 119 ft 9 kts 356°
2026-04-21 01:00 33.93427 -118.39816 119 ft 0 kts 340°
2026-04-21 01:02 33.93468 -118.39710 120 ft 25 kts 93°
2026-04-21 01:02 33.93481 -118.39555 120 ft 19 kts 85°
2026-04-21 01:02 33.93488 -118.39511 120 ft 1 kts 68°
2026-04-21 01:02 33.93498 -118.39438 120 ft 13 kts 75°
2026-04-21 01:03 33.93508 -118.39313 118 ft 16 kts 80°
2026-04-21 01:03 33.93510 -118.39299 118 ft 0 kts 79°
2026-04-21 01:03 33.93511 -118.39290 120 ft 8 kts 81°
2026-04-21 01:03 33.93526 -118.39146 120 ft 20 kts 75°
2026-04-21 01:04 33.93560 -118.39099 120 ft 0 kts
2026-04-21 01:04 33.93608 -118.39105 120 ft 18 kts 355°
2026-04-21 01:04 33.93641 -118.39204 120 ft 45 kts 265°
2026-04-21 01:04 33.93546 -118.39752 349 ft 73 kts 248°
2026-04-21 01:05 33.93142 -118.40115 775 ft 76 kts 192°
2026-04-21 01:05 33.92592 -118.40048 1221 ft 83 kts 182°
2026-04-21 01:05 33.91987 -118.39913 1570 ft 90 kts 177°
2026-04-21 01:05 33.91303 -118.39677 1593 ft 114 kts 172°
2026-04-21 01:06 33.90534 -118.39402 1404 ft 116 kts 185°
2026-04-21 01:06 33.89855 -118.39731 1181 ft 97 kts 234°
2026-04-21 01:06 33.89706 -118.40481 1102 ft 100 kts 277°
2026-04-21 01:06 33.89852 -118.41260 1093 ft 90 kts 276°
2026-04-21 01:07 33.89748 -118.41938 1317 ft 79 kts 256°
2026-04-21 01:07 33.89604 -118.42604 1350 ft 80 kts 257°
2026-04-21 01:07 33.89413 -118.43275 1148 ft 85 kts 249°
2026-04-21 01:07 33.89001 -118.43727 1143 ft 86 kts 209°
2026-04-21 01:08 33.89016 -118.44237 1237 ft 99 kts 334°
2026-04-21 01:08 33.89753 -118.44020 1095 ft 115 kts 33°
2026-04-21 01:08 33.90262 -118.43271 1173 ft 114 kts 51°
2026-04-21 01:08 33.90636 -118.42493 1497 ft 108 kts 61°
2026-04-21 01:09 33.90980 -118.41603 1505 ft 125 kts 61°
2026-04-21 01:09 33.91335 -118.40676 1444 ft 115 kts 64°
2026-04-21 01:09 33.91589 -118.39850 1076 ft 97 kts 71°
2026-04-21 01:09 33.91809 -118.39131 849 ft 85 kts 73°
2026-04-21 01:10 33.91966 -118.38427 795 ft 84 kts 84°
2026-04-21 01:10 33.92083 -118.37701 644 ft 95 kts 85°
2026-04-21 01:10 33.92149 -118.36910 460 ft 89 kts 86°
2026-04-21 01:10 33.92161 -118.36211 354 ft 83 kts 85°
2026-04-21 01:11 33.92189 -118.35568 279 ft 86 kts 85°
2026-04-21 01:11 33.92219 -118.34837 200 ft 68 kts 83°
2026-04-21 01:11 33.92253 -118.34326 106 ft 60 kts 76°
2026-04-21 01:11 33.92279 -118.33840 61 ft 43 kts 72°
2026-04-21 01:12 33.92279 -118.33711 61 ft 39 kts 87°
2026-04-21 01:12 33.92303 -118.33067 277 ft 93 kts 86°
2026-04-21 01:12 33.92097 -118.32299 519 ft 101 kts 125°
2026-04-21 01:12 33.91643 -118.31661 747 ft 103 kts 141°
2026-04-21 01:13 33.91150 -118.31031 1031 ft 101 kts 134°
2026-04-21 01:13 33.90697 -118.30375 1260 ft 106 kts 133°
2026-04-21 01:13 33.90247 -118.29695 1367 ft 100 kts 134°
2026-04-21 01:13 33.89826 -118.28973 1299 ft 104 kts 129°
2026-04-21 01:14 33.89417 -118.28303 1502 ft 102 kts 132°